Regional Weather Roundup
Issued by NWS

Home | Current Version | Previous Version | Text Only | Print | Product List | Glossary Off
Versions: 1 2 3 4 5 6 7 8 9 10 11 12 13 14 15 16 17 18 19 20 21 22 23 24 25 26 27 28 29 30 31 32 33 34 35 36 37 38 39 40 41 42 43 44 45 46 47 48 49 50

000
ASUS45 KPSR 240310
RWRAZ

ARIZONA REGIONAL HOURLY WEATHER ROUNDUP
NATIONAL WEATHER SERVICE PHOENIX AZ
800 PM MST SUN NOV 23 2014

NOTE: FAIR INDICATES FEW OR NO CLOUDS BELOW 12,000 FEET WITH NO
SIGNIFICANT WEATHER AND/OR OBSTRUCTIONS TO VISIBILITY.

AZZ001>003-036-240400-
NORTHWEST ARIZONA

CITY           SKY/WX    TMP DP  RH WIND       PRES   REMARKS
BULLHEAD CITY  CLEAR     61   9  12 CALM      30.21R
KINGMAN        CLEAR     39   6  25 SE10      30.22R WCI  32
$$

AZZ004>008-015-016-018-240400-
NORTH CENTRAL ARIZONA

CITY           SKY/WX    TMP DP  RH WIND       PRES   REMARKS
GRAND CANYON   CLEAR     21  -7  28 CALM      30.21R
PRESCOTT       CLEAR     33  -3  21 NW8       30.20R WCI  26
FLAGSTAFF      CLEAR     24  -9  23 CALM      30.18R
PAYSON         CLEAR     41  -9  11 N9        30.18R
$$

AZZ009>014-017-240400-
NORTHEAST ARIZONA

CITY           SKY/WX    TMP DP  RH WIND       PRES   REMARKS
WINSLOW        CLEAR     30  -6  21 W8        30.18R WCI  22
SAINT JOHNS    CLEAR     31   0  26 W8        30.14R WCI  23
SHOW LOW       CLEAR     28  -6  22 N10       30.17S WCI  19
$$

AZZ023-240400-
GREATER PHOENIX AREA

CITY           SKY/WX    TMP DP  RH WIND       PRES   REMARKS
PHOENIX        PTCLDY    62   9  12 CALM      30.07R
BUCKEYE          N/A     55   5  13 NW10      30.09S
LUKE AFB       CLEAR     55  10  17 N9        30.08R HAZE
DEER VALLEY    CLEAR     60  -1   8 NE10      30.08R
SCOTTSDALE     CLEAR     57   7  13 SE3       30.09R
MESA-GATEWAY   CLEAR     54  14  20 E3        30.10R
CHANDLER       PTCLDY    61  10  13 W9        30.06S
$$

AZZ027-028-240400-
SOUTHWEST MARICOPA COUNTY AND PINAL COUNTY

CITY           SKY/WX    TMP DP  RH WIND       PRES   REMARKS
CASA GRANDE    CLEAR     59   7  12 CALM      30.08R
$$

AZZ503-504-507>509-240400-
SOUTHEAST ARIZONA

CITY           SKY/WX    TMP DP  RH WIND       PRES   REMARKS
TUCSON         CLEAR     56  24  29 NW6       30.12R
DAVIS-MONTHAN  CLEAR     55  25  31 NW7       30.10R
RYAN FIELD       N/A    N/A N/A N/A S3        30.11R
NOGALES        CLEAR     44  21  40 NE5       30.10R
SIERRA VISTA   CLEAR     43  19  38 W10       30.13R
DOUGLAS        CLEAR     44  22  41 NW16      30.09R
SAFFORD        CLEAR     51  -7   9 NW18      30.09R
$$

AZZ020-021-025-026-031-240400-
SOUTHWEST ARIZONA

CITY           SKY/WX    TMP DP  RH WIND       PRES   REMARKS
YUMA           PTCLDY    65   5   9 N9        30.12R
$$

CAZ031-033-041-043-047-048-061-240400-
SOUTHERN CALIFORNIA

CITY           SKY/WX    TMP DP  RH WIND       PRES   REMARKS
DOWNTOWN L.A.  PTCLDY    67  12  12 CALM      30.10R
L.A. AIRPORT   MOCLDY    70   8   9 N8        30.10R
SAN DIEGO      MOCLDY    67  44  43 CALM      30.11R
BURBANK        PTCLDY    67   3   8 NW7       30.12R
ONTARIO        MOCLDY    63   4   9 NW7       30.12R
RIVERSIDE      MOCLDY    67   5   8 NE8       30.13S
PALM SPRINGS   PTCLDY    64  15  15 W5        30.17F
EL CENTRO NAS  PTCLDY    60  25  26 W3        30.14R
IMPERIAL       PTCLDY    59  26  28 CALM      30.14R
BLYTHE         CLEAR     63   6  10 N16       30.15R
NEEDLES        CLEAR     58   4  11 N8        30.19R
$$

NVZ020-UTZ003-240400-
SOUTHERN NEVADA-UTAH

CITY           SKY/WX    TMP DP  RH WIND       PRES   REMARKS
LAS VEGAS      PTCLDY    54  11  18 W8        30.18R
SALT LAKE CITY MOCLDY    37  23  56 S7        30.24R WCI  32
$$

NMZ009-TXZ055-240400-
NEW MEXICO-WEST TEXAS

CITY           SKY/WX    TMP DP  RH WIND       PRES   REMARKS
ALBUQUERQUE    PTCLDY    40   8  26 NW15G28   30.04R WCI  32
EL PASO        MOCLDY    53   0  11 N13       29.99R
$$


........................KEY........................
SKY/WX - SKY CONDITION/WEATHER
TMP    - TEMPERATURE IN FAHRENHEIT
DP     - DEW POINT IN FAHRENHEIT
RH     - RELATIVE HUMIDITY IN PERCENT
WIND   - DIRECTION AND SPEED IN MILES PER HOUR (MPH)
VRB    - VARIABLE WIND DIRECTION
PRES   - MEAN SEA LEVEL PRESSURE IN INCHES OF MERCURY
         F - FALLING PRESSURE   R - RISING PRESSURE
         S - STEADY PRESSURE
VSB    - VISIBILITY IN MILES
HX     - HEAT INDEX IN FAHRENHEIT
WCI    - WIND CHILL INDEX IN FAHRENHEIT
TC     - TEMPERATURE IN CELSIUS WHICH IS ALSO KNOWN AS
         TEMPERATURE IN CENTIGRADE
AFB    - AIR FORCE BASE
         LUKE AFB IS LUKE AIR FORCE BASE
         DAVIS-MONTHAN IS DAVIS-MONTHAN AIR FORCE BASE
NAS    - NAVAL AIR STATION
         EL CENTRO NAS IS EL CENTRO NAVAL AIR STATION
N/A    - NOT AVAILABLE



USA.gov is the U.S. government's official web portal to all federal, state and local government web resources and services.